[[{"header":{"parameterUnit":"m.s-1","parameterCategory":1,"la1":30.2991,"la2":30.254,"lo1":-89.0895,"lo2":-89.0444,"dy":0.0017,"dx":0.0017,"nx":28,"ny":28,"refTime":"2024-08-17T03:00:00:Z","depth":0,"parameterNumber":2,"parameterNumberName":"U-component_of_WINDS"},"data":[0,0,0,0,0,0,0,0,0,0,0,0,0,0,0,0,0,0,0,0,0,0,0,0,0,0,0,0,0,0,0,0,0,0,0,0,0,0,0,0,0,0,0,0,0,0,0,0,0,0,0,0,0,0,0,0,0,0,1.0323,1.0324,0,1.0443,1.0445,1.0446,1.0507,1.0507,1.0507,1.0507,1.0627,1.063,1.0633,0,0,0,0,0,0,0,0,0,0,0,0,0,1.0141,1.0144,1.0323,1.0324,1.0326,1.0443,1.0445,1.0446,1.0506,1.0507,1.0507,1.0507,1.0626,1.063,1.0634,0,0,0,0,0,0,0,0,0,0,0,0,0,1.0237,1.0145,1.0323,1.037,1.0376,1.0443,1.0445,1.0447,1.0506,1.0507,1.0507,1.0507,1.0625,1.0629,1.0634,1.0662,0,0,1.0649,1.0651,0,0,0,0,0,0,0,0,1.0231,1.0243,1.0362,1.0367,1.0373,1.046,1.0425,1.0519,1.0506,1.0457,1.0507,1.0507,1.0571,1.058,1.0603,1.0668,1.0673,1.0649,1.0652,1.0654,1.0655,0,0,0,0,0,0,0,1.0224,1.0238,1.037,1.0363,1.037,1.0384,1.0398,1.0443,1.0512,1.0461,1.0466,1.0479,1.0574,1.0598,1.0606,1.0675,1.0649,1.0653,1.0656,1.0658,1.0768,1.0768,0,0,0,0,0,0,1.0211,1.0232,1.0367,1.0374,1.0301,1.0387,1.0403,1.0432,1.0512,1.0524,1.0479,1.0482,1.059,1.06,1.0611,1.0648,1.0654,1.0658,1.0661,1.0768,1.0768,1.0768,0,0,0,0,0,0,1.0207,1.0222,1.0362,1.0305,1.0323,1.039,1.0423,1.0434,1.0458,1.0526,1.0538,1.0491,1.059,1.0604,1.0649,1.0653,1.0661,1.0665,1.0767,1.0768,1.0768,1.0724,0,0,0,0,0,0,1.0201,1.022,1.0233,1.0304,1.0326,1.0399,1.0423,1.0437,1.0466,1.0471,1.054,1.0551,1.0591,1.0641,1.0654,1.066,1.0669,1.0767,1.0768,1.0768,1.0725,1.0722,1.072,0,0,0,0,0,1.0194,1.0215,1.0233,1.0249,1.0343,1.0399,1.0412,1.0458,1.0467,1.0479,1.0522,1.0549,1.0651,1.0646,1.066,1.0667,1.0767,1.0768,1.0768,1.0726,1.0723,1.072,0,0,0,0,0,0,1.0141,1.0226,1.0246,1.0291,1.0338,1.0409,1.0427,1.0453,1.0498,1.05,1.0555,1.057,1.061,1.0643,1.0636,1.0698,1.0712,1.0714,1.0675,1.0673,1.067,1.0661,1.0673,0,0,0,0,0,1.0135,1.0175,1.0245,1.0278,1.03,1.0359,1.0385,1.0417,1.0467,1.0487,1.0533,1.058,1.0622,1.0649,1.0692,1.073,1.0745,1.0742,1.0739,1.0737,1.0739,1.076,1.0759,1.0768,1.0768,1.0768,0,0,1.0122,1.0173,1.0194,1.0269,1.0309,1.0347,1.0375,1.0415,1.0444,1.0493,1.0538,1.0573,1.0629,1.067,1.0691,1.0699,1.074,1.0737,1.0735,1.0738,1.076,1.0759,1.0759,1.0768,1.0768,1.0768,0,0,1.0118,1.0161,1.0193,1.0232,1.0292,1.0331,1.0338,1.0406,1.0431,1.0478,1.0515,1.0549,1.0621,1.0659,1.0688,1.0696,1.0722,1.0708,1.0695,1.0715,1.0715,1.0714,1.0717,1.0717,1.071,1.071,1.071,0,1.0095,1.0155,1.0205,1.0243,1.0274,1.032,1.0352,1.0387,1.0457,1.0477,1.0485,1.0576,1.0617,1.0667,1.0669,1.0691,1.07,1.0701,1.0711,1.0711,1.0711,1.0714,1.0715,1.0708,1.0708,1.0708,1.0709,0,1.0123,1.0164,1.0182,1.0249,1.0282,1.0316,1.037,1.0397,1.0425,1.0462,1.0508,1.0559,1.0612,1.0626,1.0654,1.068,1.0683,1.07,1.0715,1.0708,1.0711,1.0713,1.0705,1.0706,1.0706,1.0707,0,0,1.009,1.0184,1.019,1.0221,1.0289,1.0322,1.0357,1.041,1.0431,1.0477,1.0508,1.0567,1.0583,1.0616,1.0648,1.0666,1.0668,1.0681,1.0683,1.0676,1.0698,1.0685,1.0686,1.0686,1.0686,1.0686,1.0694,0,1.0096,1.0163,1.0208,1.0257,1.0295,1.0339,1.0369,1.0414,1.0449,1.0485,1.0524,1.0565,1.0583,1.0603,1.0622,1.0664,1.0673,1.0664,1.0714,1.0715,1.0698,1.0688,1.0674,1.0679,1.0695,1.0696,1.0696,0,1.0113,1.0158,1.0211,1.0274,1.0292,1.0319,1.037,1.0405,1.0455,1.0479,1.0515,1.0548,1.0585,1.0596,1.0648,1.064,1.0663,1.0686,1.0688,1.0694,1.0705,1.0694,1.0681,1.0682,1.0699,1.0699,1.0698,0,1.0083,1.0157,1.0199,1.0223,1.0299,1.0316,1.0348,1.0399,1.0427,1.0472,1.049,1.0538,1.0564,1.0599,1.0644,1.0647,1.0691,1.0705,1.0711,1.071,1.0719,1.0718,1.0709,1.0733,1.0733,1.0733,1.0733,0,1.0085,1.0116,1.0186,1.0211,1.0246,1.0297,1.0329,1.0364,1.0409,1.0441,1.0481,1.0509,1.0566,1.0601,1.0636,1.0673,1.0685,1.0704,1.0713,1.0701,1.0698,1.0717,1.0718,1.0733,1.0733,1.0733,1.0733,0,1.0059,1.0108,1.0155,1.0222,1.0239,1.0262,1.0319,1.0344,1.0381,1.042,1.0432,1.049,1.0533,1.058,1.0639,1.0663,1.0698,1.071,1.0681,1.0686,1.0689,1.0688,1.0692,1.0695,1.0716,1.0716,1.0716,0,1.0057,1.0082,1.0151,1.0176,1.0207,1.0245,1.0275,1.0324,1.0353,1.0411,1.0429,1.0475,1.0515,1.0582,1.0628,1.0673,1.0687,1.0686,1.0694,1.0681,1.0687,1.0685,1.0687,1.0683,1.0683,1.0682,1.0682,0,1.0049,1.0071,1.0112,1.0161,1.0195,1.0235,1.0277,1.0295,1.0352,1.0382,1.0427,1.0458,1.0518,1.0563,1.0613,1.0645,1.0672,1.0679,1.0682,1.067,1.0652,1.0661,1.0674,1.0679,1.0679,1.0679,1.0679,1.0679,1.0035,1.0058,1.011,1.0154,1.0191,1.0229,1.0256,1.0295,1.0334,1.0387,1.0414,1.0458,1.0507,1.0577,1.0608,1.0642,1.0651,1.0657,1.0658,1.0658,1.0655,1.0646,1.0652,1.0652,1.0652,1.0652,1.0652,0,1.0028,1.0064,1.0103,1.0161,1.0195,1.0218,1.0266,1.0292,1.0331,1.0374,1.0412,1.0463,1.0506,1.0555,1.0601,1.062,1.0633,1.063,1.0629,1.0636,1.0645,1.0637,1.0618,1.0618,1.0618,1.0618,1.0618,1.0618,1.0029,1.0069,1.0097,1.0156,1.0191,1.0235,1.026,1.0294,1.0329,1.0384,1.0421,1.0452,1.0498,1.0547,1.0587,1.0601,1.0615,1.0608,1.0625,1.0632,1.0635,1.0638,1.0631,1.0611,1.0611,1.0613,1.0613,1.0613]},{"header":{"parameterUnit":"m.s-1","parameterCategory":1,"la1":30.2991,"la2":30.254,"lo1":-89.0895,"lo2":-89.0444,"dy":0.0017,"dx":0.0017,"nx":28,"ny":28,"refTime":"2024-08-17T03:00:00:Z","depth":0,"parameterNumber":3,"parameterNumberName":"V-component_of_WINDS"},"data":[0,0,0,0,0,0,0,0,0,0,0,0,0,0,0,0,0,0,0,0,0,0,0,0,0,0,0,0,0,0,0,0,0,0,0,0,0,0,0,0,0,0,0,0,0,0,0,0,0,0,0,0,0,0,0,0,0,0,4.665,4.665,0,4.6636,4.6635,4.6635,4.6581,4.658,4.6579,4.6577,4.6564,4.6565,4.6565,0,0,0,0,0,0,0,0,0,0,0,0,0,4.6632,4.6633,4.665,4.665,4.665,4.6636,4.6635,4.6635,4.6581,4.658,4.6578,4.6577,4.6563,4.6564,4.6565,0,0,0,0,0,0,0,0,0,0,0,0,0,4.6631,4.6633,4.665,4.6621,4.6618,4.6636,4.6635,4.6635,4.6582,4.658,4.6578,4.6576,4.6563,4.6564,4.6565,4.661,0,0,4.6569,4.657,0,0,0,0,0,0,0,0,4.6631,4.6632,4.6626,4.6623,4.662,4.6608,4.6624,4.6627,4.6582,4.6596,4.6577,4.6575,4.658,4.658,4.6581,4.6609,4.6609,4.6569,4.657,4.657,4.6571,0,0,0,0,0,0,0,4.6631,4.6632,4.6644,4.6625,4.6622,4.6609,4.6607,4.6624,4.6599,4.6594,4.659,4.6589,4.6578,4.658,4.658,4.6609,4.6569,4.657,4.6571,4.6571,4.6672,4.6674,0,0,0,0,0,0,4.6635,4.6633,4.6645,4.6644,4.6621,4.6611,4.6608,4.6614,4.6598,4.6594,4.6591,4.6587,4.6579,4.6579,4.658,4.663,4.657,4.6572,4.6572,4.667,4.6673,4.6675,0,0,0,0,0,0,4.6635,4.6637,4.6645,4.6637,4.6637,4.6613,4.662,4.6615,4.6616,4.6596,4.6591,4.6597,4.6578,4.6578,4.6603,4.6629,4.6572,4.6573,4.6668,4.6671,4.6674,4.6732,0,0,0,0,0,0,4.6635,4.6637,4.6654,4.6638,4.6638,4.6668,4.6621,4.6616,4.6618,4.6613,4.66,4.6597,4.6576,4.6601,4.6604,4.663,4.6574,4.6665,4.6669,4.6673,4.6727,4.6736,4.6744,0,0,0,0,0,4.6635,4.6671,4.6655,4.6657,4.6658,4.667,4.667,4.6645,4.6621,4.6637,4.6624,4.6597,4.6626,4.6604,4.6607,4.6633,4.6664,4.6668,4.6673,4.6724,4.6735,4.6744,0,0,0,0,0,0,4.6691,4.6668,4.665,4.6682,4.6679,4.6661,4.668,4.6658,4.6661,4.6656,4.6626,4.6623,4.6652,4.6645,4.6621,4.6675,4.664,4.6646,4.6678,4.6689,4.6697,4.6697,4.6575,0,0,0,0,0,4.6707,4.6718,4.6698,4.6729,4.6728,4.6705,4.6709,4.6691,4.6685,4.6683,4.6672,4.6668,4.6676,4.6682,4.6689,4.6727,4.6723,4.6746,4.6755,4.6761,4.6766,4.6785,4.6795,4.6689,4.6689,4.6689,0,0,4.674,4.673,4.6739,4.674,4.6735,4.6747,4.6704,4.6719,4.6728,4.6686,4.6708,4.67,4.6694,4.6725,4.6738,4.672,4.6794,4.6767,4.6773,4.6773,4.6791,4.6801,4.6809,4.6692,4.6692,4.6691,0,0,4.6808,4.6801,4.6825,4.6821,4.6813,4.6798,4.6804,4.6789,4.6782,4.6804,4.6772,4.6783,4.6798,4.6795,4.6795,4.6862,4.6837,4.6865,4.6908,4.6927,4.6935,4.6942,4.6965,4.6974,4.6869,4.687,4.687,0,4.685,4.6867,4.6841,4.6858,4.6859,4.6821,4.6846,4.6843,4.6838,4.684,4.682,4.6838,4.6831,4.6861,4.6877,4.6879,4.6885,4.6865,4.6936,4.6943,4.6949,4.6971,4.6979,4.6873,4.6873,4.6872,4.6872,0,4.692,4.6932,4.6953,4.6949,4.6952,4.6973,4.695,4.6957,4.6939,4.6926,4.6948,4.6939,4.6943,4.6949,4.6931,4.6976,4.6965,4.6941,4.6905,4.6963,4.6982,4.6991,4.6878,4.6876,4.6875,4.6875,0,0,4.7021,4.7002,4.7009,4.7007,4.6996,4.7005,4.7025,4.7028,4.7034,4.7033,4.7048,4.7062,4.7039,4.704,4.7022,4.7038,4.7091,4.7012,4.7011,4.7026,4.7139,4.7156,4.7166,4.7075,4.7076,4.7078,4.7139,0,4.7084,4.7115,4.7091,4.7127,4.7138,4.7103,4.712,4.7115,4.7103,4.7112,4.7099,4.7109,4.7079,4.7079,4.7094,4.7081,4.7113,4.7077,4.7088,4.7089,4.709,4.7177,4.7195,4.7254,4.7147,4.7148,4.7149,0,4.7161,4.7162,4.7198,4.7185,4.7189,4.7204,4.7205,4.7213,4.7208,4.7198,4.7199,4.7176,4.7194,4.716,4.7185,4.7161,4.7165,4.7159,4.7161,4.716,4.7122,4.7177,4.7272,4.728,4.7161,4.716,4.7159,0,4.723,4.7241,4.7263,4.7263,4.7248,4.7259,4.7254,4.7246,4.7249,4.7251,4.7252,4.7256,4.7258,4.7262,4.7241,4.7218,4.7268,4.7232,4.726,4.7261,4.7271,4.7271,4.7367,4.7276,4.7276,4.7276,4.7276,0,4.7302,4.7325,4.7294,4.7308,4.7333,4.7307,4.7333,4.7323,4.7317,4.7329,4.7299,4.7311,4.7283,4.7292,4.7277,4.7299,4.7301,4.7293,4.7288,4.7295,4.7296,4.7296,4.7291,4.7278,4.7278,4.7277,4.7277,0,4.7383,4.7363,4.7385,4.7369,4.7366,4.7385,4.7371,4.7384,4.7371,4.7386,4.7388,4.7367,4.7377,4.7356,4.7363,4.7352,4.7384,4.7373,4.7386,4.7382,4.7411,4.7408,4.751,4.7521,4.7424,4.7425,4.7426,0,4.7429,4.7446,4.7432,4.7437,4.7433,4.7443,4.7446,4.7421,4.7425,4.742,4.7433,4.744,4.7444,4.746,4.7446,4.7451,4.744,4.7475,4.744,4.7446,4.7439,4.7438,4.7439,4.7482,4.7483,4.7484,4.7485,0,4.7514,4.7503,4.7508,4.751,4.7515,4.7516,4.7514,4.7521,4.7494,4.7501,4.7509,4.7512,4.7519,4.7526,4.7527,4.7522,4.7499,4.7496,4.7502,4.7509,4.7515,4.7511,4.7404,4.7493,4.7492,4.7492,4.7491,4.7491,4.7578,4.7591,4.7583,4.759,4.7586,4.7586,4.7596,4.7584,4.7591,4.7594,4.7579,4.7591,4.7585,4.7585,4.7582,4.7591,4.7575,4.7585,4.7587,4.759,4.7594,4.7514,4.7592,4.7591,4.7591,4.7591,4.7591,0,4.766,4.7653,4.766,4.7658,4.7664,4.7642,4.7639,4.7645,4.7656,4.7652,4.7656,4.7667,4.7673,4.766,4.7664,4.7674,4.7664,4.7676,4.7675,4.7674,4.7609,4.7602,4.7685,4.7685,4.7685,4.7685,4.7685,4.7685,4.7703,4.7724,4.7712,4.7731,4.7725,4.7735,4.7736,4.7735,4.7732,4.7744,4.7749,4.7741,4.7733,4.7737,4.7742,4.7738,4.7741,4.7757,4.7749,4.7688,4.7679,4.767,4.7663,4.7758,4.7758,4.7813,4.7814,4.7814]}]]